Regional Weather Roundup
Issued by NWS Northern Indiana

Home | Current Version | Previous Version | Graphics & Text | Print | Product List | Glossary On
Versions: 1 2 3 4 5 6 7 8 9 10 11 12 13 14 15 16 17 18 19 20 21 22 23 24 25 26 27 28 29 30 31 32 33 34 35 36 37 38 39 40 41 42 43 44 45 46 47 48 49 50
000
ASUS43 KIWX 211900
RWRIWX

KIWX WEATHER ROUNDUP
NATIONAL WEATHER SERVICE NORTHERN INDIANA
300 PM EDT THU AUG 21 2014

NOTE: "FAIR" INDICATES FEW OR NO CLOUDS BELOW 12,000 FEET WITH NO
SIGNIFICANT WEATHER AND/OR OBSTRUCTIONS TO VISIBILITY.

* THESE STATIONS ARE NOT UNDER NWS QUALITY CONTROL. THEY ALSO MAY NOT
  REPORT WEATHER SUCH AS PRECIPITATION OR FOG.

INZ001>027-212000-
NORTHERN INDIANA

CITY           SKY/WX    TMP DP  RH WIND       PRES   REMARKS
GARY*          CLOUDY    79  73  83 SW7       29.98R
VALPARAISO     CLOUDY    78  72  81 S7        29.99R
KNOX*          CLOUDY    77  71  80 S7        29.98S
SOUTH BEND     CLOUDY    77  70  79 SW9       30.01R
GOSHEN         CLOUDY    78  70  76 S9        30.01S
MONTICELLO*    CLOUDY    82  75  77 S8        29.98S
WARSAW*        CLOUDY    73  72  94 S3        30.01S
ANGOLA*        CLOUDY    79  70  73 SW7       30.00R
FORT WAYNE     LGT RAIN  74  70  87 SW8       30.01S

$$
INZ028>050-212000-
CENTRAL INDIANA

CITY           SKY/WX    TMP DP  RH WIND       PRES   REMARKS
LAFAYETTE      PTSUNNY   84  73  69 SW7       29.98F
KOKOMO*        CLOUDY    79  72  78 S13       30.01F
MUNCIE*        CLOUDY    79  70  74 S8G20     30.03F
INDIANAPOLIS   PTSUNNY   84  72  67 SW12      30.02F

$$
MIZ043>046-050>051-056>058-064>065-071>073-077>080-212000-
SOUTHWEST LOWER MICHIGAN

CITY           SKY/WX    TMP DP  RH WIND       PRES   REMARKS
BATTLE CREEK   PTSUNNY   82  68  62 S9        29.98S
BENTON HARBOR  CLOUDY    75  69  81 W16       30.01R
COLDWATER*     CLOUDY    81  70  68 SW9       29.99R
HILLSDALE*     CLOUDY    82  69  62 SW5       30.00R
HOLLAND        CLOUDY    76  70  82 W12       30.00R
GRAND RAPIDS   CLOUDY    79  72  79 E3        29.98R
KALAMAZOO      CLOUDY    81  69  67 S10       29.98R
STURGIS*       CLOUDY    75  72  88 SW8       30.00R
THREE RIVERS*  CLOUDY    77  71  80 SW6       30.01R

$$
OHZ001>008-015>018-024>025-212000-
NORTHWEST OHIO

CITY           SKY/WX    TMP DP  RH WIND       PRES   REMARKS
DEFIANCE       CLOUDY    77  69  76 SW10      30.00R
FINDLAY        CLOUDY    76  69  79 SW15      29.99F
TOLEDO EXPRESS CLOUDY    80  69  69 SW7       29.97F
TOLEDO METCALF CLOUDY    81  68  64 S9        29.98F
LIMA           CLOUDY    73  69  87 S9        30.02F

$$
&&


USA.gov is the U.S. government's official web portal to all federal, state and local government web resources and services.